Mosby, MO

8:44 PM CDT on July 24, 2017 (GMT -0500)
Clay County Regional

Weather History for KGPH - July, 2013

Change the Weather History Date:

Wednesday, July 3, 2013

  Actual Average (KMKC) Record (KMKC)
Temperature  
Mean Temperature 70 °F -  
Max Temperature 84 °F 85 °F 100 °F (2012)
Min Temperature 55 °F 68 °F 57 °F (2014)
Cooling Degree Days 4    
Growing Degree Days 20 (Base 50)    
Moisture  
Dew Point 58 °F    
Average Humidity 76    
Maximum Humidity 100    
Minimum Humidity 33    
Precipitation  
Precipitation 0.00 in - - ()
Sea Level Pressure  
Sea Level Pressure 30.05 in    
Wind  
Wind Speed 2 mph (WSW)    
Max Wind Speed 16 mph    
Max Gust Speed 21 mph    
Visibility 10 miles    
Events Rain , Thunderstorm    
Averages and records for this station are not official NWS values.
T = Trace of Precipitation, MM = Missing Value Source: NWS Daily Summary

Daily Weather History Graph

Daily Weather History Graph

Search for Another Location

Airport or City:

Trip Planner

Search our weather history database for the weather conditions in past years. The results will help you decide how hot, cold, wet, or windy it might be!

Date:

Astronomy

Jul. 03, 2013 Rise Set
Actual Time 5:55 AM CDT 8:47 PM CDT
Civil Twilight 5:23 AM CDT 9:19 PM CDT
Nautical Twilight 4:42 AM CDT 9:59 PM CDT
Astronomical Twilight 3:56 AM CDT 10:46 PM CDT
Moon 2:33 AM CDT (7/3) 4:59 PM CDT (7/3)
Length of Visible Light 15h 56m
Length of Day
14h 52m
Waning Crescent, 18% of the Moon is Illuminated
Jul 3
Waning Crescent
Jul 8
New
Jul 15
First Quarter
Jul 22
Full
Jul 29
Last Quarter

Hourly Weather History & Observations

Time (CDT) Temp. Heat Index Dew Point Humidity Pressure Visibility Wind Dir Wind Speed Gust Speed Precip Events Conditions
12:15 AM 60.8 °F - 57.2 °F 88% 30.07 in 10.0 mi Calm Calm - N/A   Clear
12:35 AM 60.8 °F - 59.0 °F 94% 30.07 in 10.0 mi Calm Calm - N/A   Clear
12:55 AM 60.8 °F - 59.0 °F 94% 30.07 in 10.0 mi Calm Calm - N/A   Clear
1:15 AM 59.0 °F - 59.0 °F 100% 30.07 in 10.0 mi Calm Calm - N/A   Clear
1:35 AM 59.0 °F - 59.0 °F 100% 30.07 in 10.0 mi Calm Calm - N/A   Clear
1:55 AM 59.0 °F - 59.0 °F 100% 30.06 in 10.0 mi Calm Calm - N/A   Clear
2:15 AM 59.0 °F - 59.0 °F 100% 30.06 in 10.0 mi Calm Calm - N/A   Clear
2:35 AM 57.2 °F - 57.2 °F 100% 30.05 in 10.0 mi Calm Calm - N/A   Clear
2:55 AM 59.0 °F - 59.0 °F 100% 30.05 in 10.0 mi Calm Calm - N/A   Clear
3:15 AM 59.0 °F - 59.0 °F 100% 30.05 in 10.0 mi Calm Calm - N/A   Mostly Cloudy
3:35 AM 59.0 °F - 59.0 °F 100% 30.05 in 10.0 mi Calm Calm - N/A   Mostly Cloudy
3:55 AM 59.0 °F - 59.0 °F 100% 30.05 in 10.0 mi Calm Calm - N/A   Scattered Clouds
4:15 AM 57.2 °F - 57.2 °F 100% 30.05 in 10.0 mi Calm Calm - N/A   Scattered Clouds
4:35 AM 57.2 °F - 57.2 °F 100% 30.05 in 10.0 mi Calm Calm - N/A   Scattered Clouds
4:55 AM 57.2 °F - 57.2 °F 100% 30.05 in 10.0 mi Calm Calm - N/A   Scattered Clouds
5:15 AM 57.2 °F - 57.2 °F 100% 30.05 in 10.0 mi Calm Calm - N/A   Scattered Clouds
5:35 AM 57.2 °F - 57.2 °F 100% 30.05 in 7.0 mi Calm Calm - N/A   Scattered Clouds
5:55 AM 55.4 °F - 55.4 °F 100% 30.06 in 7.0 mi Calm Calm - N/A   Scattered Clouds
6:15 AM 55.4 °F - 55.4 °F 100% 30.06 in 10.0 mi Calm Calm - N/A   Clear
6:35 AM 55.4 °F - 55.4 °F 100% 30.06 in 10.0 mi Calm Calm - N/A   Scattered Clouds
6:55 AM 57.2 °F - 57.2 °F 100% 30.06 in 10.0 mi Calm Calm - N/A   Clear
7:15 AM 59.0 °F - 59.0 °F 100% 30.06 in 10.0 mi Calm Calm - N/A   Clear
7:35 AM 60.8 °F - 59.0 °F 94% 30.07 in 10.0 mi Calm Calm - N/A   Clear
7:55 AM 62.6 °F - 60.8 °F 94% 30.07 in 10.0 mi Calm Calm - N/A   Clear
8:15 AM 62.6 °F - 60.8 °F 94% 30.07 in 10.0 mi Calm Calm - N/A   Clear
8:35 AM 64.4 °F - 62.6 °F 94% 30.08 in 10.0 mi Calm Calm - N/A   Clear
8:55 AM 68.0 °F - 62.6 °F 83% 30.08 in 10.0 mi Calm Calm - N/A   Clear
9:15 AM 69.8 °F - 64.4 °F 83% 30.08 in 10.0 mi Calm Calm - N/A   Clear
9:35 AM 71.6 °F - 62.6 °F 73% 30.08 in 10.0 mi Calm Calm - N/A   Clear
9:55 AM 73.4 °F - 59.0 °F 61% 30.07 in 10.0 mi Calm Calm - N/A   Clear
10:15 AM 77.0 °F - 55.4 °F 47% 30.07 in 10.0 mi WNW 3.5 mph - N/A   Clear
10:35 AM 77.0 °F - 55.4 °F 47% 30.07 in 10.0 mi WSW 3.5 mph - N/A   Clear
10:55 AM 78.8 °F - 55.4 °F 44% 30.07 in 10.0 mi WSW 5.8 mph - N/A   Clear
11:15 AM 78.8 °F - 55.4 °F 44% 30.07 in 10.0 mi Calm Calm - N/A   Clear
11:35 AM 78.8 °F - 55.4 °F 44% 30.07 in 10.0 mi Calm Calm - N/A   Scattered Clouds
11:55 AM 78.8 °F - 55.4 °F 44% 30.07 in 10.0 mi WNW 5.8 mph - N/A   Scattered Clouds
12:15 PM 80.6 °F 80.3 °F 53.6 °F 39% 30.06 in 10.0 mi West 6.9 mph - N/A   Clear
12:35 PM 80.6 °F 80.3 °F 53.6 °F 39% 30.06 in 10.0 mi West 8.1 mph - N/A   Clear
12:55 PM 80.6 °F 80.5 °F 55.4 °F 42% 30.06 in 10.0 mi West 6.9 mph - N/A   Clear
1:15 PM 80.6 °F 80.5 °F 55.4 °F 42% 30.05 in 10.0 mi West 4.6 mph - N/A   Clear
1:35 PM 82.4 °F 81.4 °F 53.6 °F 37% 30.05 in 10.0 mi West 10.4 mph - N/A   Scattered Clouds
1:55 PM 82.4 °F 81.4 °F 53.6 °F 37% 30.03 in 10.0 mi West 8.1 mph - N/A   Scattered Clouds
2:15 PM 82.4 °F 81.4 °F 53.6 °F 37% 30.03 in 10.0 mi West 6.9 mph - N/A Thunderstorm Clear
2:35 PM 82.4 °F 81.4 °F 53.6 °F 37% 30.02 in 10.0 mi WNW 4.6 mph - N/A   Scattered Clouds
2:55 PM 82.4 °F - 51.8 °F 35% 30.02 in 10.0 mi WNW 4.6 mph - N/A Thunderstorm Scattered Clouds
3:15 PM 84.2 °F - 51.8 °F 33% 30.01 in 10.0 mi West 9.2 mph - N/A   Scattered Clouds
3:35 PM 82.4 °F - 51.8 °F 35% 30.02 in 10.0 mi West 4.6 mph - N/A   Scattered Clouds
3:55 PM 80.6 °F 80.5 °F 55.4 °F 42% 30.02 in 10.0 mi Calm Calm - N/A   Scattered Clouds
4:15 PM 75.2 °F - 55.4 °F 50% 30.03 in 10.0 mi NE 9.2 mph - N/A Rain , Thunderstorm Light Thunderstorms and Rain
4:35 PM 73.4 °F - 59.0 °F 61% 30.02 in 10.0 mi ENE 4.6 mph - N/A   Scattered Clouds
4:55 PM 71.6 °F - 59.0 °F 64% 30.02 in 10.0 mi NNE 4.6 mph - N/A Thunderstorm Scattered Clouds
5:15 PM 71.6 °F - 60.8 °F 69% 30.01 in 10.0 mi East 5.8 mph - N/A Thunderstorm Clear
5:35 PM 71.6 °F - 59.0 °F 64% 30.02 in 10.0 mi SSE 6.9 mph - N/A Thunderstorm Scattered Clouds
5:55 PM 69.8 °F - 59.0 °F 68% 30.06 in 10.0 mi West 13.8 mph 20.7 mph N/A Rain , Thunderstorm Thunderstorms and Rain
6:15 PM 64.4 °F - 59.0 °F 83% 30.05 in 7.0 mi West 16.1 mph - N/A Rain , Thunderstorm Thunderstorms and Rain
6:35 PM 66.2 °F - 59.0 °F 78% 30.03 in 4.0 mi ESE 5.8 mph - N/A Rain Light Rain
6:55 PM 68.0 °F - 59.0 °F 73% 30.03 in 7.0 mi Calm Calm - N/A Rain Light Rain
7:15 PM 71.6 °F - 50.0 °F 46% 30.02 in 7.0 mi Calm Calm - N/A Rain , Thunderstorm Thunderstorms and Rain
7:35 PM 64.4 °F - 59.0 °F 83% 30.04 in 10.0 mi South 9.2 mph - N/A Rain , Thunderstorm Light Thunderstorms and Rain
7:55 PM 64.4 °F - 59.0 °F 83% 30.03 in 10.0 mi South 11.5 mph 17.3 mph N/A Thunderstorm Thunderstorm
8:15 PM 66.2 °F - 59.0 °F 78% 30.02 in 10.0 mi South 10.4 mph 17.3 mph N/A Rain Light Rain
8:35 PM 66.2 °F - 59.0 °F 78% 30.03 in 10.0 mi SW 5.8 mph - N/A   Scattered Clouds
8:55 PM 64.4 °F - 57.2 °F 77% 30.03 in 10.0 mi South 11.5 mph 16.1 mph N/A   Clear
9:15 PM 64.4 °F - 57.2 °F 77% 30.02 in 10.0 mi South 5.8 mph - N/A   Clear
9:35 PM 64.4 °F - 57.2 °F 77% 30.02 in 10.0 mi South 3.5 mph - N/A   Clear
9:55 PM 64.4 °F - 57.2 °F 77% 30.02 in 10.0 mi East 3.5 mph - N/A   Clear
10:15 PM 62.6 °F - 57.2 °F 82% 30.02 in 10.0 mi Calm Calm - N/A   Clear
10:35 PM 60.8 °F - 59.0 °F 94% 30.02 in 10.0 mi Calm Calm - N/A   Clear
10:55 PM 60.8 °F - 60.8 °F 100% 30.02 in 10.0 mi Calm Calm - N/A   Clear
11:15 PM 60.8 °F - 60.8 °F 100% 30.02 in 10.0 mi Calm Calm - N/A   Clear
11:35 PM 60.8 °F - 60.8 °F 100% 30.03 in 10.0 mi Calm Calm - N/A   Clear
11:55 PM 60.8 °F - 60.8 °F 100% 30.03 in 10.0 mi Calm Calm - N/A   Clear